Simultaneous Nadir Overpasses (SNOs) Predictions

Prediction of SNOs between GOES-15 and TERRA Satellite Orbit:

Table of predicted SNOs for the next 14.0 days since TLE Epoch: 7/20/2024
Index Date Time (GOES-15) GOES-15 Lat,Lon TERRA Lat,Lon Distance(km) Time Diff (sec)
1 07/20/2024 17:30:33 0.03, 61.20 0.42, 63.21 228.01 80
2 07/21/2024 05:53:07 0.01, 61.13 0.57, 58.37 313.15 80
3 07/23/2024 05:32:54 -0.01, 61.14 -0.29, 62.61 165.45 80
4 07/23/2024 17:55:33 -0.03, 61.22 -0.78, 57.75 395.09 80
5 07/25/2024 17:35:22 -0.01, 61.24 0.17, 61.97 83.75 80
6 07/26/2024 05:57:53 0.05, 61.17 0.91, 57.15 457.10 80
7 07/28/2024 05:37:40 0.03, 61.19 -0.03, 61.37 21.61 80
8 07/30/2024 05:20:06 0.01, 61.21 -0.93, 65.60 499.89 80
9 07/30/2024 17:42:45 -0.06, 61.29 -0.17, 60.76 60.89 80
10 08/01/2024 17:22:30 -0.04, 61.33 0.72, 65.00 417.04 80
11 08/02/2024 05:45:02 0.09, 61.26 0.33, 60.17 123.85 80
